Rugby, ND

7:25 AM CST on December 10, 2019 (GMT -0600)
Rugby Municipal

Weather History for KRUG - October, 2019

Change the Weather History Date:

Saturday, October 26, 2019

  Actual Average Record
Temperature  
Mean Temperature 42 °F -  
Max Temperature 50 °F 53 °F 77 °F (1955)
Min Temperature 33 °F 31 °F 7 °F (1957)
Degree Days  
Heating Degree Days 24    
Moisture  
Dew Point 33 °F    
Average Humidity 72    
Maximum Humidity 81    
Minimum Humidity 61    
Precipitation  
Precipitation 0.00 in - - ()
Sea Level Pressure  
Sea Level Pressure 29.67 in    
Wind  
Wind Speed 20 mph (WNW)    
Max Wind Speed 32 mph    
Max Gust Speed 43 mph    
Visibility 10 miles    
Events      
Averages and records for this station are not official NWS values.
T = Trace of Precipitation, MM = Missing Value Source: NWS Daily Summary

Daily Weather History Graph

Daily Weather History Graph

Search for Another Location

Airport or City:

Astronomy

Oct. 26, 2019 Rise Set
Actual Time 8:16 AM CDT 6:30 PM CDT
Civil Twilight 7:44 AM CDT 7:03 PM CDT
Nautical Twilight 7:07 AM CDT 7:39 PM CDT
Astronomical Twilight 6:31 AM CDT 8:15 PM CDT
Moon 5:58 AM CDT (10/26) 6:19 PM CDT (10/26)
Length of Visible Light 11h 19m
Length of Day
10h 14m
Waning Crescent, 3% of the Moon is Illuminated
Oct 26
Waning Crescent
Oct 27
New
Nov 4
First Quarter
Nov 12
Full
Nov 19
Last Quarter

Hourly Weather History & Observations

Time (CDT) Temp. Windchill Dew Point Humidity Pressure Visibility Wind Dir Wind Speed Gust Speed Precip Events Conditions
12:15 AM 50.0 °F - 39.2 °F 66% 29.49 in 10.0 mi SSW 20.7 mph - N/A   Mostly Cloudy
12:35 AM 50.0 °F - 39.2 °F 66% 29.48 in 10.0 mi SSW 20.7 mph - N/A   Partly Cloudy
12:55 AM 50.0 °F - 39.2 °F 66% 29.47 in 10.0 mi SSW 17.3 mph 23.0 mph N/A   Scattered Clouds
1:15 AM 50.0 °F - 39.2 °F 66% 29.47 in 10.0 mi SSW 18.4 mph - N/A   Partly Cloudy
1:35 AM 50.0 °F - 39.2 °F 66% 29.47 in 10.0 mi SSW 18.4 mph - N/A   Scattered Clouds
1:55 AM 50.0 °F - 39.2 °F 66% 29.47 in 10.0 mi SSW 18.4 mph - N/A   Mostly Cloudy
2:15 AM 50.0 °F - 39.2 °F 66% 29.47 in 10.0 mi SSW 16.1 mph 25.3 mph N/A   Scattered Clouds
2:35 AM 50.0 °F - 39.2 °F 66% 29.48 in 10.0 mi SW 15.0 mph 23.0 mph N/A   Partly Cloudy
2:55 AM 48.2 °F - 39.2 °F 71% 29.48 in 10.0 mi SSW 12.7 mph - N/A   Clear
3:15 AM 46.4 °F 40.7 °F 39.2 °F 76% 29.47 in 10.0 mi SSW 12.7 mph - N/A   Scattered Clouds
3:35 AM 46.4 °F 41.1 °F 39.2 °F 76% 29.47 in 10.0 mi SSW 11.5 mph - N/A   Scattered Clouds
3:55 AM 46.4 °F 40.7 °F 39.2 °F 76% 29.48 in 10.0 mi SW 12.7 mph - N/A   Clear
4:15 AM 46.4 °F 41.5 °F 39.2 °F 76% 29.48 in 10.0 mi SW 10.4 mph - N/A   Clear
4:35 AM 42.8 °F 37.0 °F 37.4 °F 81% 29.48 in 10.0 mi SW 10.4 mph - N/A   Clear
4:55 AM 42.8 °F 36.6 °F 37.4 °F 81% 29.48 in 10.0 mi SW 11.5 mph - N/A   Clear
5:15 AM 42.8 °F 36.6 °F 37.4 °F 81% 29.50 in 10.0 mi WSW 11.5 mph - N/A   Unknown
5:55 AM 44.6 °F 39.7 °F 39.2 °F 81% 29.51 in 10.0 mi West 9.2 mph - N/A   Scattered Clouds
6:15 AM 44.6 °F 38.8 °F 39.2 °F 81% 29.52 in 10.0 mi West 11.5 mph - N/A   Partly Cloudy
6:35 AM 46.4 °F 39.8 °F 39.2 °F 76% 29.52 in 10.0 mi WNW 16.1 mph - N/A   Partly Cloudy
6:55 AM 46.4 °F 40.1 °F 37.4 °F 71% 29.53 in 10.0 mi WNW 15.0 mph 21.9 mph N/A   Scattered Clouds
7:15 AM 44.6 °F 38.1 °F 37.4 °F 76% 29.53 in 10.0 mi WNW 13.8 mph - N/A   Scattered Clouds
7:35 AM 44.6 °F 38.4 °F 37.4 °F 76% 29.55 in 10.0 mi West 12.7 mph - N/A   Mostly Cloudy
7:55 AM 44.6 °F 38.1 °F 35.6 °F 71% 29.56 in 10.0 mi WNW 13.8 mph - N/A   Mostly Cloudy
8:15 AM 44.6 °F 37.2 °F 35.6 °F 71% 29.55 in 10.0 mi WNW 17.3 mph 25.3 mph N/A   Partly Cloudy
8:35 AM 42.8 °F 34.8 °F 35.6 °F 76% 29.58 in 10.0 mi WNW 17.3 mph 25.3 mph N/A   Clear
8:55 AM 41.0 °F 30.2 °F 33.8 °F 76% 29.59 in 10.0 mi WNW 27.6 mph 35.7 mph N/A   Partly Cloudy
9:15 AM 41.0 °F 31.9 °F 33.8 °F 76% 29.60 in 10.0 mi WNW 19.6 mph 31.1 mph N/A   Clear
9:35 AM 41.0 °F 30.5 °F 33.8 °F 76% 29.60 in 10.0 mi WNW 26.5 mph 32.2 mph N/A   Clear
9:55 AM 41.0 °F 30.5 °F 33.8 °F 76% 29.61 in 10.0 mi WNW 26.5 mph 32.2 mph N/A   Clear
10:15 AM 41.0 °F 30.9 °F 33.8 °F 76% 29.62 in 10.0 mi WNW 24.2 mph 35.7 mph N/A   Clear
10:35 AM 41.0 °F 32.2 °F 33.8 °F 76% 29.63 in 10.0 mi WNW 18.4 mph 27.6 mph N/A   Clear
10:55 AM 42.8 °F 32.3 °F 33.8 °F 70% 29.62 in 10.0 mi NW 29.9 mph - N/A   Clear
11:15 AM 42.8 °F 33.1 °F 33.8 °F 70% 29.64 in 10.0 mi WNW 25.3 mph 33.4 mph N/A   Mostly Cloudy
11:35 AM 41.0 °F 30.2 °F 33.8 °F 76% 29.67 in 10.0 mi WNW 27.6 mph 34.5 mph N/A   Overcast
11:55 AM 41.0 °F 30.2 °F 33.8 °F 76% 29.67 in 10.0 mi WNW 27.6 mph 35.7 mph N/A   Overcast
12:35 PM 42.8 °F 32.3 °F 30.2 °F 61% 29.69 in 10.0 mi NW 29.9 mph 40.3 mph N/A   Overcast
12:55 PM 42.8 °F 31.9 °F 30.2 °F 61% 29.69 in 10.0 mi NW 32.2 mph 42.6 mph N/A   Overcast
1:15 PM 42.8 °F 32.1 °F 30.2 °F 61% 29.70 in 10.0 mi NW 31.1 mph 39.1 mph N/A   Mostly Cloudy
1:35 PM 41.0 °F 29.7 °F 30.2 °F 65% 29.70 in 10.0 mi NW 31.1 mph 38.0 mph N/A   Mostly Cloudy
1:55 PM 41.0 °F 29.8 °F 30.2 °F 65% 29.70 in 10.0 mi NW 29.9 mph 39.1 mph N/A   Mostly Cloudy
2:15 PM 41.0 °F 29.7 °F 32.0 °F 70% 29.72 in 10.0 mi NW 31.1 mph - N/A   Mostly Cloudy
2:35 PM 41.0 °F 30.2 °F 30.2 °F 65% 29.72 in 10.0 mi NW 27.6 mph 34.5 mph N/A   Overcast
2:55 PM 41.0 °F 29.8 °F 30.2 °F 65% 29.72 in 10.0 mi NW 29.9 mph 39.1 mph N/A   Mostly Cloudy
3:15 PM 41.0 °F 30.7 °F 30.2 °F 65% 29.75 in 10.0 mi NW 25.3 mph 34.5 mph N/A   Mostly Cloudy
3:35 PM 41.0 °F 30.9 °F 30.2 °F 65% 29.74 in 10.0 mi NW 24.2 mph 34.5 mph N/A   Scattered Clouds
3:55 PM 39.2 °F 28.0 °F 30.2 °F 70% 29.75 in 10.0 mi NW 26.5 mph 32.2 mph N/A   Partly Cloudy
4:15 PM 39.2 °F 28.5 °F 30.2 °F 70% 29.75 in 10.0 mi NW 24.2 mph 31.1 mph N/A   Mostly Cloudy
4:35 PM 41.0 °F 30.0 °F 30.2 °F 65% 29.77 in 10.0 mi NW 28.8 mph 36.8 mph N/A   Overcast
4:55 PM 39.2 °F 27.8 °F 30.2 °F 70% 29.77 in 10.0 mi NW 27.6 mph - N/A   Mostly Cloudy
5:15 PM 39.2 °F 29.3 °F 30.2 °F 70% 29.79 in 10.0 mi NW 20.7 mph 29.9 mph N/A   Mostly Cloudy
5:35 PM 39.2 °F 28.7 °F 30.2 °F 70% 29.82 in 10.0 mi NW 23.0 mph 29.9 mph N/A   Mostly Cloudy
5:55 PM 39.2 °F 28.7 °F 30.2 °F 70% 29.81 in 10.0 mi NW 23.0 mph 31.1 mph N/A   Overcast
6:15 PM 37.4 °F 27.5 °F 28.4 °F 70% 29.83 in 10.0 mi NW 18.4 mph 34.5 mph N/A   Overcast
6:35 PM 37.4 °F 26.9 °F 28.4 °F 70% 29.83 in 10.0 mi NW 20.7 mph - N/A   Overcast
6:55 PM 37.4 °F 26.9 °F 28.4 °F 70% 29.85 in 10.0 mi NW 20.7 mph - N/A   Overcast
7:15 PM 37.4 °F 25.9 °F 28.4 °F 70% 29.85 in 10.0 mi NW 25.3 mph - N/A   Overcast
7:35 PM 37.4 °F 27.2 °F 28.4 °F 70% 29.86 in 10.0 mi NW 19.6 mph 27.6 mph N/A   Overcast
7:55 PM 35.6 °F 23.7 °F 28.4 °F 75% 29.87 in 10.0 mi NW 24.2 mph - N/A   Overcast
8:15 PM 35.6 °F 24.2 °F 28.4 °F 75% 29.88 in 10.0 mi NW 21.9 mph 29.9 mph N/A   Overcast
8:35 PM 35.6 °F 24.8 °F 28.4 °F 75% 29.89 in 10.0 mi NW 19.6 mph 25.3 mph N/A   Unknown
8:55 PM 35.6 °F 25.5 °F 28.4 °F 75% 29.89 in 10.0 mi NW 17.3 mph 28.8 mph N/A   Unknown
9:15 PM 35.6 °F 25.2 °F 28.4 °F 75% 29.88 in 10.0 mi NW 18.4 mph 27.6 mph N/A   Overcast
9:55 PM 35.6 °F 25.2 °F 28.4 °F 75% 29.91 in 10.0 mi NW 18.4 mph - N/A   Overcast
10:15 PM 35.6 °F 24.8 °F 28.4 °F 75% 29.91 in 10.0 mi NW 19.6 mph - N/A   Overcast
10:35 PM 33.8 °F 23.5 °F 28.4 °F 81% 29.91 in 10.0 mi NW 16.1 mph 29.9 mph N/A   Overcast
10:55 PM 33.8 °F 22.2 °F 26.6 °F 75% 29.92 in 10.0 mi NW 20.7 mph - N/A   Overcast
11:15 PM 33.8 °F 22.2 °F 26.6 °F 75% 29.92 in 10.0 mi NW 20.7 mph 26.5 mph N/A   Overcast
11:35 PM 33.8 °F 21.9 °F 26.6 °F 75% 29.91 in 10.0 mi NW 21.9 mph 31.1 mph N/A   Overcast
11:55 PM 33.8 °F 21.6 °F 26.6 °F 75% 29.91 in 10.0 mi NW 23.0 mph - N/A   Overcast